Regional Weather Roundup
Issued by NWS

Home | Current Version | Previous Version | Text Only | Print | Product List | Glossary On
Versions: 1 2 3 4 5 6 7 8 9 10 11 12 13 14 15 16 17 18 19 20 21 22 23 24 25 26 27 28 29 30 31 32 33 34 35 36 37 38 39 40 41 42 43 44 45 46 47 48 49 50
000
ASUS43 KBIS 192220
RWRND

NORTH DAKOTA REGIONAL WEATHER ROUNDUP
NATIONAL WEATHER SERVICE BISMARCK ND
500 PM CDT FRI SEP 19 2014

NOTE: "FAIR" INDICATES FEW OR NO CLOUDS BELOW 12,000 FEET WITH NO
SIGNIFICANT WEATHER AND/OR OBSTRUCTIONS TO VISIBILITY.


NDZ001>003-009>011-017-192300-
NORTHWEST NORTH DAKOTA

CITY           SKY/WX    TMP DP  RH WIND       PRES   REMARKS
WILLISTON      CLOUDY    75  49  39 NW21      29.73R
MINOT          SUNNY     77  54  44 NW26G32   29.62R
MINOT AFB      PTSUNNY   81  48  32 W24G30    29.55S
$$

NDZ018>021-031>035-040>046-192300-
SOUTHWEST NORTH DAKOTA

CITY           SKY/WX    TMP DP  RH WIND       PRES   REMARKS
BISMARCK       PTSUNNY   83  49  30 W21G32    29.66R
DICKINSON      PTSUNNY   75  48  38 W21G31    29.73R
GARRISON         N/A     79  50  36 NW24G37   29.64R
HETTINGER ARPT SUNNY     77  46  33 W20G31    29.78R
$$

NDZ004>008-012>016-024-026-027-054-192300-
NORTHEAST NORTH DAKOTA

CITY           SKY/WX    TMP DP  RH WIND       PRES   REMARKS
GRAND FORKS    MOSUNNY   83  60  45 W10G21    29.49S
GRND FRKS AFB  SUNNY     83  56  39 W12G18    29.50S
DEVILS LAKE    SUNNY     82  54  36 W18       29.52S
$$

NDZ022-023-025-028>030-036>039-047>053-192300-
SOUTHEAST NORTH DAKOTA

CITY           SKY/WX    TMP DP  RH WIND       PRES   REMARKS
FARGO          SUNNY     79  65  62 SW14      29.55S
JAMESTOWN      SUNNY     82  52  35 W16G23    29.59R
$$



USA.gov is the U.S. government's official web portal to all federal, state and local government web resources and services.